Tracking 17631 objects as of 3-May-2016
HD Live streaming from Space Station
objects crossing your sky now

COSMOS 2251 DEB

Track COSMOS 2251 DEB now!
10-day predictions


NORAD ID: 34473
Int'l Code: 1993-036TS
Perigee: 733.7 km
Apogee: 771.2 km
Inclination: 74.0 °
Period: 99.7 minutes
Semi major axis: 7123 km
RCS: 0.0156 m2 (small)
Launch date: June 16, 1993
Source: Commonwealth of Independent States (former USSR) (CIS)
Launch site: PLESETSK MISSILE AND SPACE COMPLEX (PKMTR)

Note: This is SATELLITE DEBRIS
Your satellite tracking list
Your tracking list is empty





NASA's NSSDC Master Catalog

Two Line Element Set (TLE):
1 34473U 93036TS  16123.70552095  .00001660  00000-0  49049-3 0  9990
2 34473  74.0343 222.8958 0026296  45.6170  76.1150 14.44077564377883
Source of the keplerian elements: AFSPC

N2YO: 431